Find Starlink 38349

NORAD ID: 100558 Int'l Des: 2026-200 Owner: SPXS Country: US Constellation: starlink operational

Current View

Loading 3D Globe...

About Starlink 38349

Starlink 38349 (NORAD 100558) is a starlink constellation satellite launched Sep 2, 2026 by SPXS of US. with a mass of 575.00 kg.

Upcoming Passes

Passes for default location (London). Set your location on the main map for personalized predictions.

Altitude History

Loading altitude history...

Two-Line Element Set

1 A0558U 26200AA 26254.31367510 .00362653 00000-0 16881-2 0 9994
2 A0558 69.9985 161.5571 0003840 265.2533 94.8230 15.82233429 1436
Epoch: Sep 11, 2026 • Age: 15 hours

Current Status

Altitude 326.4 km
Apogee / Perigee N/A
Velocity 7.71 km/s
Sub-Earth Point -6.71°S, 173.69°W
Launch Date Sep 2, 2026
Age 9 days
Type internet

Technical Details

Classification Payload
Mass 575.00 kg
Dry Mass 530.00 kg
Total Mass 575.00 kg
Length 0.30 m
Diameter 4.10 m
Span 29.00 m
Shape Box + pan
Manufacturer SPXS
Bus Type Starlink V2MO
Phase Status In Orbit
Owner/State SPXS/US

Most Searched